This is the latest recevied weather packets stored in our database for station/object KF7U. If no packets are shown the sender has not sent any weather packets the latest 10 day(s).
| Time | Temp. | Humidity | Pressure | Rain* | Wind** | Luminosity | Snow |
|---|---|---|---|---|---|---|---|
| 1777855056 | 34.44° C | 16% | 1005.4 hPa | 0 mm | - | 157 W/m² | - |
| 1777854763 | 34.44° C | 16% | 1005.1 hPa | 0 mm | - | 191 W/m² | - |
| 1777854454 | 35° C | 16% | 1005.1 hPa | 0 mm | - | 241 W/m² | - |
| 1777854154 | 35° C | 16% | 1005.4 hPa | 0 mm | - | 308 W/m² | - |
| 1777853858 | 35° C | 16% | 1005.4 hPa | 0 mm | - | 355 W/m² | - |
| 1777853554 | 34.44° C | 15% | 1005.4 hPa | 0 mm | - | 387 W/m² | - |
| 1777853254 | 35° C | 15% | 1005.4 hPa | 0 mm | - | 418 W/m² | - |
| 1777852954 | 35° C | 15% | 1005.4 hPa | 0 mm | - | 433 W/m² | - |
| 1777852655 | 35° C | 15% | 1005.4 hPa | 0 mm | - | 446 W/m² | - |
| 1777852355 | 35° C | 16% | 1005.4 hPa | 0 mm | - | 461 W/m² | - |
| 1777852054 | 35° C | 16% | 1005.8 hPa | 0 mm | - | 492 W/m² | - |
| 1777851754 | 35° C | 16% | 1005.8 hPa | 0 mm | - | 540 W/m² | - |
| 1777851457 | 35.56° C | 15% | 1005.8 hPa | 0 mm | - | 480 W/m² | - |
| 1777851154 | 35.56° C | 16% | 1005.8 hPa | 0 mm | - | 560 W/m² | - |
| 1777850854 | 35° C | 16% | 1006.1 hPa | 0 mm | - | 594 W/m² | - |
| 1777850555 | 35° C | 16% | 1005.8 hPa | 0 mm | - | 606 W/m² | - |
| 1777850254 | 35° C | 16% | 1006.1 hPa | 0 mm | - | 642 W/m² | - |
| 1777849955 | 35.56° C | 15% | 1006.1 hPa | 0 mm | - | 662 W/m² | - |
| 1777849657 | 35.56° C | 16% | 1006.1 hPa | 0 mm | - | 675 W/m² | - |
| 1777849354 | 35° C | 16% | 1006.1 hPa | 0 mm | - | 654 W/m² | - |
| 1777849054 | 35.56° C | 16% | 1006.1 hPa | 0 mm | - | 678 W/m² | - |
| 1777848754 | 35.56° C | 15% | 1006.4 hPa | 0 mm | - | 698 W/m² | - |
| 1777848455 | 35° C | 16% | 1006.4 hPa | 0 mm | - | 716 W/m² | - |
| 1777848154 | 35.56° C | 16% | 1006.4 hPa | 0 mm | - | 734 W/m² | - |
| 1777847855 | 35.56° C | 16% | 1006.8 hPa | 0 mm | - | 751 W/m² | - |
* Rain latest hour (hover to see other rain measurements)
** Current wind speed in m/s (hover to see current wind gust speed)